When you browse on this site, cookies collect data to enhance your experience and personalize the content and advertising you see.
Visit our Privacy Policy to learn more. By continuing to use the site, you agree to this use of cookies and data.
  • In Hungary
  • List of Countries
  • For 7 days
  • Water Temperature
  • Weather Map
  • News
  • Weather Widgets
  • user-avatar
    Login

    Hourly Weather Achi

    Today, 22 August, Thursday

    Time Temperature Precipitation Wind Pressure Humidity
    00:00 +16°C° 0 mm 0 mps 759 mmHg 91%
    01:00 +15°C° 0 mm 0 mps 759 mmHg 91%
    02:00 +15°C° 0 mm 0 mps 759 mmHg 91%
    03:00 +15°C° 0 mm 0 mps 760 mmHg 92%
    04:00 +16°C° 0 mm 0 mps 760 mmHg 91%
    05:00 +17°C° 0 mm 0 mps 760 mmHg 89%
    06:00 +17°C° 0 mm 0 mps 760 mmHg 88%
    07:00 +18°C° 0 mm 0 mps 760 mmHg 84%
    08:00 +20°C° 0 mm 0 mps 760 mmHg 80%
    09:00 +21°C° 0 mm 0 mps 760 mmHg 77%
    10:00 +24°C° 0 mm 1 mps 759 mmHg 73%
    11:00 +25°C° 0 mm 1 mps 759 mmHg 70%
    12:00 +26°C° 0 mm 1 mps 759 mmHg 66%
    13:00 +26°C° 0 mm 1 mps 759 mmHg 66%
    14:00 +26°C° 0 mm 1 mps 759 mmHg 66%
    15:00 +27°C° 0 mm 1 mps 759 mmHg 65%
    16:00 +26°C° 0 mm 1 mps 758 mmHg 70%
    17:00 +25°C° 0 mm 1 mps 758 mmHg 74%
    18:00 +24°C° 0 mm 1 mps 758 mmHg 78%
    19:00 +23°C° 0 mm 1 mps 758 mmHg 81%
    20:00 +21°C° 0 mm 2 mps 758 mmHg 84%
    21:00 +20°C° 0 mm 2 mps 758 mmHg 86%
    22:00 +20°C° 0 mm 2 mps 758 mmHg 87%
    23:00 +19°C° 0 mm 2 mps 757 mmHg 88%

    Tomorrow, 23 August, Friday

    Time Temperature Precipitation Wind Pressure Humidity
    00:00 +19°C° 0 mm 2 mps 757 mmHg 89%
    01:00 +19°C° 0 mm 2 mps 757 mmHg 89%
    02:00 +18°C° 0 mm 3 mps 757 mmHg 89%
    03:00 +18°C° 0 mm 3 mps 758 mmHg 89%
    04:00 +18°C° 0 mm 3 mps 757 mmHg 89%
    05:00 +19°C° 0 mm 3 mps 757 mmHg 88%
    06:00 +19°C° 0 mm 3 mps 757 mmHg 87%
    07:00 +20°C° 0.1 mm 3 mps 758 mmHg 87%
    08:00 +20°C° 0.1 mm 4 mps 758 mmHg 86%
    09:00 +21°C° 0.1 mm 4 mps 758 mmHg 86%
    10:00 +21°C° 0 mm 4 mps 758 mmHg 81%
    11:00 +21°C° 0 mm 4 mps 758 mmHg 76%
    12:00 +22°C° 0 mm 4 mps 758 mmHg 71%
    13:00 +22°C° 0 mm 4 mps 759 mmHg 68%
    14:00 +22°C° 0 mm 4 mps 759 mmHg 66%
    15:00 +22°C° 0 mm 4 mps 759 mmHg 64%
    16:00 +21°C° 0 mm 3 mps 759 mmHg 68%
    17:00 +20°C° 0 mm 3 mps 759 mmHg 72%
    18:00 +19°C° 0 mm 2 mps 759 mmHg 76%
    19:00 +18°C° 0 mm 2 mps 759 mmHg 78%
    20:00 +17°C° 0 mm 2 mps 760 mmHg 80%
    21:00 +16°C° 0 mm 1 mps 760 mmHg 83%
    22:00 +15°C° 0 mm 1 mps 760 mmHg 83%
    23:00 +15°C° 0 mm 1 mps 760 mmHg 84%

    Day after tomorrow, 24 August, Saturday

    Time Temperature Precipitation Wind Pressure Humidity
    00:00 +14°C° 0 mm 1 mps 760 mmHg 85%
    01:00 +14°C° 0 mm 1 mps 760 mmHg 86%
    02:00 +14°C° 0 mm 1 mps 760 mmHg 87%
    03:00 +13°C° 0 mm 1 mps 760 mmHg 88%
    04:00 +14°C° 0 mm 1 mps 760 mmHg 87%
    05:00 +14°C° 0 mm 1 mps 760 mmHg 86%
    06:00 +15°C° 0 mm 1 mps 760 mmHg 85%
    07:00 +16°C° 0 mm 1 mps 761 mmHg 79%
    08:00 +19°C° 0 mm 1 mps 761 mmHg 74%
    09:00 +20°C° 0 mm 2 mps 761 mmHg 69%
    10:00 +20°C° 0 mm 2 mps 761 mmHg 64%
    11:00 +21°C° 0 mm 2 mps 760 mmHg 60%
    12:00 +22°C° 0 mm 3 mps 760 mmHg 56%
    13:00 +22°C° 0 mm 3 mps 760 mmHg 56%
    14:00 +22°C° 0 mm 3 mps 760 mmHg 56%
    15:00 +22°C° 0 mm 3 mps 760 mmHg 55%
    16:00 +21°C° 0 mm 2 mps 759 mmHg 61%
    17:00 +20°C° 0 mm 2 mps 759 mmHg 67%
    18:00 +19°C° 0 mm 2 mps 758 mmHg 72%
    19:00 +18°C° 0 mm 2 mps 758 mmHg 75%
    20:00 +17°C° 0 mm 2 mps 758 mmHg 78%
    21:00 +16°C° 0 mm 2 mps 758 mmHg 81%
    22:00 +15°C° 0 mm 2 mps 758 mmHg 82%
    23:00 +15°C° 0 mm 2 mps 758 mmHg 83%

    25 August, Sunday

    Time Temperature Precipitation Wind Pressure Humidity
    00:00 +15°C° 0 mm 2 mps 757 mmHg 85%
    01:00 +14°C° 0 mm 2 mps 757 mmHg 86%
    02:00 +13°C° 0 mm 3 mps 757 mmHg 88%
    03:00 +13°C° 0 mm 3 mps 757 mmHg 90%
    04:00 +13°C° 0 mm 3 mps 756 mmHg 88%
    05:00 +14°C° 0 mm 4 mps 756 mmHg 87%
    06:00 +14°C° 0 mm 4 mps 756 mmHg 86%
    07:00 +15°C° 0 mm 5 mps 755 mmHg 83%
    08:00 +16°C° 0 mm 5 mps 755 mmHg 80%
    09:00 +17°C° 0 mm 5 mps 755 mmHg 77%
    10:00 +19°C° 0.1 mm 5 mps 755 mmHg 75%
    11:00 +20°C° 0.1 mm 6 mps 755 mmHg 73%
    12:00 +21°C° 0.1 mm 6 mps 755 mmHg 71%
    13:00 +20°C° 0.1 mm 6 mps 755 mmHg 70%
    14:00 +20°C° 0.1 mm 6 mps 755 mmHg 69%
    15:00 +20°C° 0.1 mm 6 mps 755 mmHg 69%
    16:00 +19°C° 0 mm 5 mps 755 mmHg 72%
    17:00 +16°C° 0 mm 5 mps 755 mmHg 76%
    18:00 +15°C° 0 mm 4 mps 755 mmHg 80%
    19:00 +14°C° 0 mm 4 mps 755 mmHg 83%
    20:00 +13°C° 0 mm 4 mps 755 mmHg 85%
    21:00 +12°C° 0 mm 3 mps 755 mmHg 87%
    22:00 +11°C° 0 mm 4 mps 755 mmHg 89%
    23:00 +11°C° 0 mm 4 mps 755 mmHg 91%

    26 August, Monday

    Time Temperature Precipitation Wind Pressure Humidity
    00:00 +11°C° 0 mm 4 mps 755 mmHg 93%
    01:00 +10°C° 0 mm 5 mps 756 mmHg 90%
    02:00 +12°C° 0 mm 5 mps 756 mmHg 87%
    03:00 +12°C° 0 mm 5 mps 756 mmHg 84%
    04:00 +12°C° 0 mm 5 mps 756 mmHg 85%
    05:00 +10°C° 0 mm 5 mps 757 mmHg 86%
    06:00 +9°C° 0 mm 5 mps 757 mmHg 86%
    07:00 +10°C° 0 mm 6 mps 758 mmHg 82%
    08:00 +11°C° 0 mm 6 mps 758 mmHg 78%
    09:00 +11°C° 0 mm 7 mps 759 mmHg 74%
    10:00 +11°C° 0 mm 6 mps 759 mmHg 73%
    11:00 +11°C° 0 mm 6 mps 759 mmHg 72%
    12:00 +11°C° 0 mm 6 mps 759 mmHg 71%
    13:00 +11°C° 0 mm 6 mps 760 mmHg 67%
    14:00 +13°C° 0 mm 6 mps 760 mmHg 64%
    15:00 +14°C° 0 mm 6 mps 760 mmHg 61%
    16:00 +13°C° 0 mm 5 mps 760 mmHg 65%
    17:00 +13°C° 0 mm 4 mps 760 mmHg 69%
    18:00 +12°C° 0 mm 3 mps 760 mmHg 73%
    19:00 +11°C° 0 mm 3 mps 760 mmHg 76%
    20:00 +10°C° 0 mm 3 mps 761 mmHg 79%
    21:00 +9°C° 0 mm 3 mps 761 mmHg 81%
    22:00 +8°C° 0 mm 3 mps 761 mmHg 83%
    23:00 +8°C° 0 mm 2 mps 761 mmHg 85%

    27 August, Tuesday

    Time Temperature Precipitation Wind Pressure Humidity
    00:00 +7°C° 0 mm 2 mps 761 mmHg 87%
    01:00 +7°C° 0 mm 2 mps 761 mmHg 88%
    02:00 +7°C° 0 mm 2 mps 761 mmHg 88%
    03:00 +7°C° 0 mm 2 mps 761 mmHg 88%
    04:00 +8°C° 0 mm 2 mps 760 mmHg 86%
    05:00 +8°C° 0 mm 3 mps 760 mmHg 85%
    06:00 +9°C° 0 mm 3 mps 760 mmHg 83%
    07:00 +11°C° 0 mm 4 mps 759 mmHg 78%
    08:00 +12°C° 0 mm 5 mps 759 mmHg 73%
    09:00 +14°C° 0 mm 6 mps 759 mmHg 69%
    10:00 +15°C° 0 mm 6 mps 758 mmHg 69%
    11:00 +15°C° 0 mm 6 mps 758 mmHg 70%
    12:00 +16°C° 0 mm 7 mps 757 mmHg 71%
    13:00 +16°C° 0 mm 6 mps 757 mmHg 73%
    14:00 +16°C° 0 mm 5 mps 757 mmHg 74%
    15:00 +15°C° 0 mm 4 mps 757 mmHg 76%
    16:00 +15°C° 0.2 mm 4 mps 757 mmHg 81%
    17:00 +14°C° 0.2 mm 3 mps 757 mmHg 86%
    18:00 +13°C° 0.2 mm 3 mps 757 mmHg 91%
    19:00 +13°C° 0.2 mm 2 mps 757 mmHg 93%
    20:00 +13°C° 0.2 mm 2 mps 757 mmHg 94%
    21:00 +13°C° 0.2 mm 2 mps 757 mmHg 96%
    22:00 +12°C° 0 mm 2 mps 757 mmHg 96%
    23:00 +12°C° 0 mm 2 mps 758 mmHg 97%
    Show more